Weather History for Carbondale, IL

Change the Weather History Date:

Wednesday, July 24, 2013

  Actual Average Record
Temperature  
Mean Temperature 74 °F -  
Max Temperature 81 °F 88 °F 112 °F (1934)
Min Temperature 64 °F 66 °F 48 °F (1947)
Cooling Degree Days 8    
Growing Degree Days 24 (Base 50)    
Moisture  
Dew Point 60 °F    
Average Humidity 67    
Maximum Humidity 93    
Minimum Humidity 43    
Precipitation  
Precipitation 0.00 in - - ()
Sea Level Pressure  
Sea Level Pressure 29.95 in    
Wind  
Wind Speed 4 mph (NNE)    
Max Wind Speed 10 mph    
Max Gust Speed -    
Visibility 10 miles    
Events      
Averages and records for this station are not official NWS values.
T = Trace of Precipitation, MM = Missing Value Source: NWS Daily Summary

Daily Weather History Graph

Daily Weather History Graph

Search for Another Location

Airport:

Trip Planner

Search our weather history database for the weather conditions in past years. The results will help you decide how hot, cold, wet, or windy it might be!

Date:

Astronomy

Jul. 24, 2013 Rise Set
Actual Time 5:54 AM CDT 8:12 PM CDT
Civil Twilight 5:24 AM CDT 8:42 PM CDT
Nautical Twilight 4:47 AM CDT 9:18 PM CDT
Astronomical Twilight 4:07 AM CDT 9:58 PM CDT
Moon 9:22 PM CDT (7/24) 8:10 AM CDT (7/24)
Length of Visible Light 15h 17m
Length of Day
14h 18m
Waning Gibbous, 94% of the Moon is Illuminated
Jul 24
Waning Gibbous
Jul 29
Last Quarter
Aug 6
New
Aug 14
First Quarter
Aug 20
Full

Hourly Weather History & Observations

Time (CDT) Temp. Heat Index Dew Point Humidity Pressure Visibility Wind Dir Wind Speed Gust Speed Precip Events Conditions
12:52 AM 71.1 °F - 66.0 °F 84% 29.88 in 10.0 mi Calm Calm - N/A   Partly Cloudy
1:52 AM 70.0 °F - 66.9 °F 90% 29.87 in 10.0 mi Calm Calm - N/A   Clear
2:52 AM 68.0 °F - 66.0 °F 93% 29.86 in 10.0 mi Calm Calm - N/A   Clear
3:52 AM 68.0 °F - 66.0 °F 93% 29.89 in 9.0 mi Calm Calm - N/A   Mostly Cloudy
4:52 AM 69.1 °F - 66.9 °F 93% 29.90 in 8.0 mi North 3.5 mph - N/A   Mostly Cloudy
5:52 AM 69.1 °F - 64.9 °F 87% 29.91 in 10.0 mi NNE 8.1 mph - N/A   Scattered Clouds
6:38 AM 68.0 °F - 60.8 °F 78% 29.93 in 10.0 mi NE 9.2 mph - N/A   Overcast
6:52 AM 68.0 °F - 61.0 °F 78% 29.92 in 10.0 mi NE 8.1 mph - N/A   Mostly Cloudy
7:52 AM 69.1 °F - 59.0 °F 70% 29.93 in 10.0 mi NE 10.4 mph - N/A   Mostly Cloudy
8:52 AM 70.0 °F - 57.0 °F 63% 29.96 in 10.0 mi NE 6.9 mph - N/A   Scattered Clouds
9:52 AM 73.0 °F - 57.9 °F 59% 29.97 in 10.0 mi Variable 3.5 mph - N/A   Scattered Clouds
10:52 AM 75.0 °F - 57.9 °F 55% 29.96 in 10.0 mi Variable 6.9 mph - N/A   Partly Cloudy
11:52 AM 75.9 °F - 59.0 °F 56% 29.98 in 10.0 mi North 9.2 mph - N/A   Partly Cloudy
12:52 PM 78.1 °F - 57.0 °F 48% 29.98 in 10.0 mi North 9.2 mph - N/A   Partly Cloudy
1:52 PM 79.0 °F - 57.0 °F 47% 29.97 in 10.0 mi North 8.1 mph - N/A   Partly Cloudy
2:52 PM 80.1 °F 80.4 °F 57.0 °F 45% 29.96 in 10.0 mi North 9.2 mph - N/A   Scattered Clouds
3:52 PM 80.1 °F 80.2 °F 55.9 °F 43% 29.96 in 10.0 mi NNE 4.6 mph - N/A   Clear
4:52 PM 81.0 °F 81.0 °F 57.0 °F 44% 29.96 in 10.0 mi NNE 10.4 mph - N/A   Clear
5:52 PM 80.1 °F 80.4 °F 57.0 °F 45% 29.96 in 10.0 mi North 9.2 mph - N/A   Clear
6:52 PM 77.0 °F - 57.0 °F 50% 29.97 in 10.0 mi North 10.4 mph - N/A   Clear
7:52 PM 73.0 °F - 57.0 °F 57% 29.97 in 10.0 mi North 4.6 mph - N/A   Clear
8:52 PM 68.0 °F - 57.9 °F 70% 29.98 in 10.0 mi North 4.6 mph - N/A   Clear
9:52 PM 66.0 °F - 57.9 °F 75% 30.00 in 10.0 mi North 4.6 mph - N/A   Clear
10:52 PM 66.0 °F - 57.0 °F 73% 30.02 in 10.0 mi North 5.8 mph - N/A   Clear
11:52 PM 64.9 °F - 57.0 °F 75% 30.02 in 10.0 mi North 4.6 mph - N/A   Clear